Probability
0 0 0 0 0 0 0 0 1 2 2 1 1 1 1 1 2 4 7 8 11 17 21 21 18 15 16 17 19 22 22 20 20 21 23 26 27 26 23 20 18 18 18 19
0 0 0 0 0 0 0 0 1 3 3 1 0 1 2 3 3 5 8 10 13 16 19 20 19 17 16 15 16 19 20 19 20 21 23 26 26 25 23 21 19 20 20 21
0 0 0 0 0 0 0 0 1 2 3 1 0 1 3 4 5 6 8 10 12 15 17 18 19 19 17 14 14 16 17 18 19 21 22 24 24 23 24 23 21 22 22 21
0 0 0 0 0 0 0 0 0 1 1 0 0 1 3 4 4 5 7 8 10 13 15 16 18 19 19 17 16 17 17 17 17 19 20 21 20 20 21 21 21 21 21 20
0 0 0 0 0 0 0 0 0 0 0 0 0 1 3 3 3 5 7 7 8 10 13 16 18 19 19 17 17 19 18 14 13 14 17 18 18 17 16 16 17 19 19 18
0 0 0 0 0 0 0 0 0 0 0 0 0 1 2 3 4 5 6 6 7 8 11 14 18 19 17 16 16 16 13 10 9 10 14 17 17 15 12 12 14 16 15 14
0 0 0 0 0 0 0 0 0 0 0 0 0 0 1 2 4 4 4 5 6 8 9 12 16 17 17 15 13 10 8 8 7 8 11 15 15 14 12 10 11 13 13 12
0 0 0 0 0 0 0 0 0 0 0 0 0 0 0 1 3 3 3 4 4 6 7 9 13 15 16 14 10 7 6 7 7 7 10 13 13 14 13 10 9 10 11 10
0 0 0 0 0 0 0 0 0 0 0 0 0 0 0 1 2 3 3 2 2 3 4 6 8 11 13 12 9 7 7 7 5 6 9 10 11 12 11 9 8 8 8 7
0 0 0 0 0 0 0 0 0 0 0 0 0 0 0 1 2 2 2 1 1 1 2 3 5 7 9 9 8 7 7 5 4 4 7 7 7 7 6 6 6 6 6 5
1 1 0 0 0 0 0 0 0 0 0 0 1 1 1 0 1 1 1 1 1 1 1 2 3 3 4 5 5 6 4 3 2 3 4 4 4 3 3 5 5 4 3 4
0 0 0 0 0 0 0 0 0 0 0 1 2 2 1 0 0 1 1 1 1 1 0 1 1 1 1 1 2 2 2 1 0 1 2 1 1 1 2 3 3 3 3 3
0 0 0 0 0 0 0 0 0 0 0 1 2 2 1 0 0 1 1 1 0 0 0 0 0 0 0 0 0 0 0 0 0 0 1 1 1 1 0 1 1 2 2 3
0 1 1 1 0 0 0 0 0 0 0 0 1 1 0 0 0 1 1 1 0 0 0 0 0 0 0 0 0 0 0 0 0 0 0 1 2 1 1 1 1 1 1 2
0 1 1 1 1 1 1 1 0 0 0 0 1 0 0 0 0 0 0 0 0 0 0 0 0 0 0 0 0 0 0 0 0 0 0 1 1 1 2 2 1 0 0 1
0 0 0 1 1 2 3 2 1 0 0 0 0 0 0 0 0 0 0 0 0 0 0 0 1 0 0 0 0 0 0 0 0 0 0 0 0 1 2 2 1 0 0 0
0 0 0 0 1 2 3 2 1 0 0 0 0 0 0 0 1 1 0 0 0 0 0 0 0 0 0 0 0 0 0 0 0 0 0 0 0 0 1 1 0 1 2 1
0 0 1 0 0 0 1 1 0 0 0 1 0 0 1 2 3 2 1 0 0 0 0 0 0 1 1 2 1 1 0 0 0 0 0 0 0 0 0 0 0 1 3 2
0 0 0 0 0 0 0 0 0 0 1 1 0 0 1 2 3 2 1 0 0 0 0 1 1 1 2 2 2 1 0 0 0 0 0 0 0 0 0 0 0 1 3 3
0 0 0 0 0 0 0 0 0 1 1 1 0 0 1 1 1 1 0 0 0 0 0 1 1 1 1 1 1 0 0 0 0 0 0 0 0 0 0 0 1 1 2 2
0 0 0 0 0 0 0 0 0 1 2 1 0 0 0 0 0 0 0 0 0 0 0 1 1 1 2 1 1 0 0 0 0 0 0 0 0 0 0 0 1 2 1 1
0 0 0 0 0 0 0 0 0 1 1 1 0 0 0 0 0 0 1 1 1 1 1 1 2 3 3 3 2 1 0 0 0 0 0 0 0 0 0 0 1 1 1 1
0 0 0 0 0 0 0 0 0 0 0 0 0 0 0 0 0 1 2 3 3 3 2 3 3 3 3 3 3 1 0 0 0 0 0 0 0 0 0 0 0 0 0 0
0 0 0 0 0 0 1 0 0 0 0 0 0 0 0 0 0 1 3 4 4 4 3 3 3 3 3 3 3 2 1 0 0 0 0 0 0 0 0 0 0 0 0 0
0 0 0 0 0 0 0 0 0 0 0 0 0 0 0 0 0 2 3 4 4 3 3 3 3 3 3 3 3 3 1 1 1 1 0 0 0 0 0 0 0 0 0 0
0 0 0 0 0 0 0 0 0 0 0 0 0 0 0 0 0 1 3 3 3 3 3 3 3 3 3 3 3 3 2 1 2 1 0 0 0 0 0 0 0 0 0 0
Wind_Speed
4 5 3 1 3 4 4 4 3 1 3 3 2 3 3 3 2 3 4 4 4 4 5 5 5 5 4 4 3 2 2 2 1 1 2 2 2 2 2 3 4 4 4 4
6 3 1 2 3 5 5 5 3 3 3 2 3 3 3 4 3 4 4 4 4 4 4 5 4 4 4 3 2 2 2 1 1 1 1 1 1 1 1 1 2 3 3 3
2 3 0 3 3 4 5 4 3 3 3 5 5 4 4 5 4 5 4 4 4 4 3 3 3 3 3 2 1 1 1 1 1 1 1 1 1 1 2 2 2 3 3 3
0 1 1 2 1 4 3 1 3 5 7 5 7 3 5 3 4 5 4 4 4 3 3 3 3 3 3 2 1 1 1 1 1 1 1 1 1 1 1 1 2 3 3 3
2 2 2 2 3 4 2 2 5 7 7 4 5 5 5 3 3 4 5 4 4 4 3 3 3 3 3 2 2 2 2 1 0 1 2 2 2 1 1 1 2 2 3 3
1 1 2 3 2 1 2 4 5 8 7 5 2 3 3 3 3 4 5 5 5 4 4 4 3 3 3 2 1 2 1 1 1 1 1 2 2 2 2 2 2 2 2 3
3 3 2 2 1 2 3 5 5 6 5 2 2 1 3 5 4 4 4 5 5 5 4 3 4 4 3 2 2 1 1 1 1 1 1 2 3 3 3 3 2 2 2 2
2 2 3 3 3 3 3 5 4 4 3 1 3 1 5 5 5 5 4 4 5 5 5 4 4 3 2 2 1 0 1 1 1 1 1 2 3 2 2 2 1 1 1 0
3 1 3 2 2 3 3 3 4 5 4 3 2 4 5 4 3 4 4 4 5 5 5 4 4 3 2 1 1 1 0 0 1 1 2 2 2 1 1 2 2 1 1 1
4 2 1 1 2 2 1 3 4 4 2 2 2 2 2 2 3 3 4 4 4 5 5 5 4 3 3 2 1 1 0 1 1 1 1 1 2 2 1 2 1 0 1 1
4 3 2 2 2 3 1 1 3 3 3 4 1 2 5 2 2 2 3 4 4 4 4 4 4 3 3 2 1 1 1 0 0 1 1 1 1 1 1 1 1 1 1 1
3 4 1 3 3 1 2 2 3 3 1 3 2 3 5 3 3 3 3 4 4 4 4 4 4 3 3 3 2 2 1 1 0 0 1 1 1 1 1 1 1 2 2 2
3 3 3 5 4 2 2 3 3 3 2 2 2 3 4 4 4 4 4 4 4 4 4 4 4 3 3 2 2 2 2 1 0 1 1 1 2 1 1 2 2 1 1 1
4 2 3 2 2 1 1 3 3 3 2 2 2 1 2 3 4 4 4 3 4 3 4 4 3 3 3 2 2 2 2 1 0 1 1 2 2 1 1 2 1 1 1 1
3 1 1 2 2 1 1 2 2 3 4 3 3 2 3 3 3 3 2 3 3 4 4 4 4 3 3 3 3 2 2 1 0 0 1 1 1 1 1 2 2 1 1 1
2 2 1 2 2 1 1 2 2 2 3 2 2 3 4 3 2 2 2 2 3 4 4 4 4 3 3 3 3 2 2 1 1 1 1 2 1 2 2 2 2 1 1 0
2 3 3 2 2 3 1 2 2 2 3 4 3 3 2 2 2 2 2 3 3 4 4 4 4 3 3 3 3 2 1 1 1 1 2 2 2 2 2 1 2 1 1 0
2 2 2 2 2 2 3 3 3 3 3 4 2 2 2 2 2 1 2 3 3 4 4 3 3 3 2 2 2 1 1 2 1 2 2 2 2 2 2 2 1 1 0 0
2 2 2 2 2 1 2 1 3 4 2 3 3 3 2 2 1 3 3 3 3 3 3 3 3 2 2 1 1 1 1 2 2 2 2 2 2 2 2 1 1 1 1 1
1 3 3 2 3 1 4 4 4 5 1 3 3 2 2 1 1 3 3 3 3 3 3 3 3 2 2 2 2 1 2 2 2 2 2 2 2 1 1 1 1 1 1 1
2 3 3 3 2 1 5 3 3 3 4 3 2 2 2 2 4 3 2 2 3 3 3 3 2 2 2 2 2 2 2 3 2 2 2 2 2 1 1 1 1 1 1 1
3 2 2 2 3 1 3 0 2 4 3 1 2 1 1 2 2 2 2 2 2 2 2 2 2 3 2 2 2 2 3 3 2 2 2 2 2 1 2 1 1 1 2 1
2 3 3 2 2 4 1 0 2 2 2 2 2 1 0 0 1 1 2 2 2 2 2 2 2 2 2 2 1 2 2 2 2 2 2 2 2 1 1 0 1 1 1 2
2 0 3 2 1 1 1 1 1 1 1 1 1 0 1 0 1 1 1 2 1 1 1 0 1 1 2 2 1 1 1 1 1 1 2 1 1 1 1 1 1 1 2 2
2 2 3 3 2 1 2 1 1 1 0 1 1 1 1 0 0 1 1 1 1 1 0 0 1 0 1 1 1 1 1 0 1 1 1 1 1 1 1 1 2 3 3 4
3 4 4 2 1 2 1 1 1 2 1 1 1 1 1 0 0 1 1 1 1 1 1 1 1 1 0 1 1 1 0 1 1 1 1 2 1 1 1 1 1 2 1 2
Wind_Direction
199 229 235 288 279 288 263 257 244 171 137 190 159 132 112 101 86 78 75 69 59 58 60 60 59 60 67 70 76 95 92 99 138 181 197 197 191 199 193 185 172 182 191 186
202 209 343 286 251 257 245 239 212 144 154 196 165 135 116 103 84 69 64 58 48 47 58 65 63 65 69 73 75 96 121 132 197 186 201 216 196 209 189 172 162 182 181 184
280 44 15 238 230 255 252 252 237 193 191 200 201 167 131 114 95 79 67 52 45 41 48 63 65 59 59 61 71 94 133 152 188 179 181 171 165 200 182 181 175 175 177 173
196 60 227 250 285 290 256 304 249 218 225 208 228 225 117 117 90 63 48 41 39 42 43 46 57 51 43 59 78 106 111 119 165 210 189 202 202 196 194 211 171 169 176 181
100 28 340 325 339 307 321 281 241 229 238 231 212 245 118 113 62 44 34 34 28 27 39 42 44 45 39 48 84 101 102 103 178 234 195 212 214 199 193 202 169 187 167 177
114 90 10 347 319 290 248 223 213 219 229 226 213 256 104 81 28 27 31 31 26 26 35 37 37 44 38 32 54 84 110 139 175 199 206 204 198 216 209 202 188 188 167 176
172 124 86 337 271 184 257 254 226 214 215 209 160 236 68 68 49 34 32 37 32 34 37 33 32 33 22 17 23 46 130 176 179 180 196 203 204 207 211 214 192 202 179 174
261 123 55 16 336 300 268 272 290 276 251 211 169 149 83 73 60 43 39 37 34 29 27 19 25 23 13 13 1 337 196 189 188 185 189 193 212 216 210 214 224 188 193 162
327 56 84 38 359 313 268 274 297 272 246 241 146 133 126 92 67 49 34 31 28 18 13 8 17 13 15 15 344 312 284 203 207 194 173 183 206 214 200 189 201 201 164 190
318 274 84 79 210 93 323 294 276 274 267 249 190 167 82 71 41 32 24 26 25 14 8 8 11 6 12 10 19 9 322 217 214 208 200 185 191 174 170 187 153 200 235 223
316 279 145 150 21 11 343 275 295 290 307 289 249 84 64 53 39 19 18 20 22 15 5 6 9 14 15 13 18 26 26 15 223 195 175 178 178 159 177 161 164 188 214 200
334 295 227 115 84 16 352 351 315 301 332 306 308 78 69 50 49 37 22 20 26 19 14 14 12 13 16 5 7 15 20 39 342 212 170 156 187 184 191 165 169 181 192 205
332 280 228 166 159 123 41 19 344 319 291 304 310 80 68 55 49 33 15 13 22 20 15 16 18 11 6 360 1 5 5 23 214 204 181 163 180 178 188 172 175 182 188 205
289 307 328 5 28 10 22 22 351 307 306 321 351 28 38 42 32 16 8 5 11 19 17 12 9 6 5 5 5 356 352 359 58 197 188 176 171 176 185 171 158 158 172 178
293 280 58 64 73 79 47 22 15 358 343 335 8 9 34 34 13 8 5 2 11 12 10 8 3 5 358 7 9 4 1 4 10 216 179 150 134 151 155 134 133 143 154 150
306 281 235 165 142 127 32 8 9 1 348 357 3 19 33 17 4 12 9 7 6 5 2 1 360 0 356 1 360 12 18 11 31 77 101 103 105 117 119 119 119 117 118 121
246 244 241 196 166 230 240 4 336 2 358 330 347 18 7 345 360 2 5 13 6 4 357 354 355 351 348 353 354 14 44 36 58 80 90 98 95 87 87 99 102 108 130 145
269 255 249 252 226 259 65 40 355 345 5 0 11 353 340 352 10 40 55 25 7 5 357 356 346 344 351 350 356 35 51 61 79 89 88 91 100 90 87 88 79 66 21 347
281 271 271 268 261 217 133 29 320 303 335 25 10 13 29 53 152 107 60 28 15 14 4 357 351 356 6 22 37 67 56 56 68 65 68 76 77 85 92 88 53 31 331 316
183 248 257 256 279 307 50 16 328 271 199 49 9 4 13 300 296 72 44 27 32 28 18 8 10 22 40 47 54 74 70 59 54 55 62 63 61 71 80 70 27 6 319 293
215 223 251 258 254 71 46 3 274 265 32 19 334 337 326 343 5 38 43 40 46 42 32 29 30 48 54 62 63 66 63 55 46 52 63 65 59 56 62 59 5 324 300 321
282 264 251 265 265 57 68 101 327 2 358 320 309 311 349 24 43 62 66 60 68 57 47 41 44 60 60 72 87 77 60 52 51 62 66 58 43 33 68 71 352 317 302 279
263 311 313 308 9 62 128 329 358 332 309 323 320 322 348 49 74 62 63 61 66 60 54 53 62 67 60 58 51 61 55 44 50 61 57 53 49 52 55 20 296 274 274 294
181 280 247 244 215 173 193 208 245 280 299 321 325 250 209 148 83 63 48 53 62 50 43 44 75 74 64 50 52 53 49 36 37 48 47 44 37 40 71 294 313 330 332 328
298 218 233 236 259 224 182 179 176 138 94 97 92 98 95 108 58 43 27 25 25 14 3 215 239 193 94 105 108 95 79 71 43 22 10 327 315 20 337 348 355 343 4 1
241 245 253 269 232 254 246 199 187 176 162 143 140 130 122 161 57 34 15 11 357 347 326 267 242 246 239 187 159 149 174 208 242 267 296 297 298 320 307 337 72 99 24 55